עמוד ראשי
METAR-TAF:

METAR-TAF

שדות תעופה :

נמל התעופה הבינלאומי טאבה

טאבה, מצרים

קו רוחב: 29-35-57N, קו אורך: 034-46-36E, גובה: 749מטר

METAR: חסר

זמן: 19:00 (17:00 UTC)

תחזית

הדו"ח נערך לפני 6 שעות ו 0דקות, בשעה 11:00 UTC
תחזית בתוקף מ 14 ב 12 UTC עד 15 ב 18 UTC
רוח 15קשר מכיוון צפון/צפון-מזרח
ראות 10 קילומטר או יותר
ללא עננים שבסיסם נמוך מ 5000 רגל או קומולונימבוס

TAF: HETB 141100Z 1412/1518 03015KT CAVOK

תצפיות ותחזיות מזג אוויר לגבי יותר מ- 4,000 שדות תעופה ברחבי העולם. דוחות METAR ו- TAF.

התחנות הזמינות מסומנות בנקודות צהובות ואדומות על גבי המפה.

העבר את העכבר לנקודה הצבעונית על מנת לראות את שם התחנה.

לאחר מכן, לחץ כדי לראות את תוכן ואת תחזיות מזג האוויר.

כדי לשנות את המפה: לחץ על הכפתורים הירוקים עם הפלוס השחור כדי להתקרב; על הכפתור הירוק עם המקף כדי להתרחק; או בחיצים הירוקים למפות סמוכות.


METAR-TAF: